Time,TemperatureF,DewpointF,PressureIn,WindDirection,WindDirectionDegrees,WindSpeedMPH,WindSpeedGustMPH,Humidity,HourlyPrecipIn,Conditions,Clouds,dailyrainin,SoftwareType,DateUTC
2014-12-26 00:22:00,71.0,62.0,30.12,NNW,333,1.0,4.0,74,0.00,,,0.22,,2014-12-26 05:22:00,
2014-12-26 00:53:00,70.0,62.0,30.11,NNW,333,0.0,3.0,75,0.00,,,0.22,,2014-12-26 05:53:00,
2014-12-26 01:22:00,70.0,62.0,30.11,NNW,333,0.0,1.0,76,0.00,,,0.22,,2014-12-26 06:22:00,
2014-12-26 01:52:00,70.0,62.0,30.11,NNW,333,0.0,0.0,77,0.00,,,0.22,,2014-12-26 06:52:00,
2014-12-26 02:22:00,69.0,61.0,30.11,NW,312,3.0,8.0,77,0.00,,,0.22,,2014-12-26 07:22:00,
2014-12-26 02:53:00,68.0,61.0,30.11,NNW,338,1.0,8.0,79,0.00,,,0.21,,2014-12-26 07:53:00,
2014-12-26 03:22:00,67.0,61.0,30.11,NW,323,3.0,10.0,80,0.00,,,0.21,,2014-12-26 08:22:00,
2014-12-26 03:52:00,67.0,61.0,30.10,NNW,345,0.0,3.0,82,0.00,,,0.18,,2014-12-26 08:52:00,
2014-12-26 04:22:00,67.0,61.0,30.10,NNW,339,1.0,6.0,81,0.00,,,0.18,,2014-12-26 09:22:00,
2014-12-26 04:53:00,67.0,61.0,30.09,NNW,339,1.0,6.0,82,0.00,,,0.14,,2014-12-26 09:53:00,
2014-12-26 05:23:00,67.0,62.0,30.10,NNW,339,3.0,5.0,83,0.00,,,0.14,,2014-12-26 10:23:00,
2014-12-26 05:53:00,67.0,62.0,30.10,North,350,2.0,6.0,83,0.00,,,0.02,,2014-12-26 10:53:00,
2014-12-26 06:22:00,67.0,62.0,30.10,North,350,2.0,5.0,84,0.00,,,0.02,,2014-12-26 11:22:00,
2014-12-26 06:52:00,67.0,62.0,30.11,North,349,1.0,4.0,84,0.00,,,0.01,,2014-12-26 11:52:00,
2014-12-26 07:22:00,67.0,62.0,30.12,NNW,336,0.0,5.0,85,0.00,,,0.01,,2014-12-26 12:22:00,
2014-12-26 07:52:00,67.0,63.0,30.12,NNW,336,0.0,4.0,87,0.01,,,0.01,,2014-12-26 12:52:00,
2014-12-26 08:22:00,66.0,63.0,30.13,NNW,336,2.0,5.0,89,0.01,,,0.01,,2014-12-26 13:22:00,
2014-12-26 08:52:00,66.0,63.0,30.14,NW,324,2.0,5.0,90,0.00,,,0.01,,2014-12-26 13:52:00,
2014-12-26 09:22:00,66.0,63.0,30.14,NNW,348,3.0,6.0,91,0.00,,,0.01,,2014-12-26 14:22:00,
2014-12-26 09:52:00,66.0,63.0,30.16,NNW,341,1.0,4.0,90,0.00,,,0.01,,2014-12-26 14:52:00,
2014-12-26 10:22:00,67.0,64.0,30.16,NNW,342,1.0,5.0,90,0.00,,,0.01,,2014-12-26 15:22:00,
2014-12-26 10:54:00,67.0,64.0,30.16,NNW,342,2.0,5.0,90,0.00,,,0.01,,2014-12-26 15:54:00,
2014-12-26 11:23:00,69.0,66.0,30.16,NNW,342,1.0,5.0,90,0.00,,,0.01,,2014-12-26 16:23:00,
2014-12-26 11:53:00,69.0,66.0,30.15,NW,318,2.0,6.0,89,0.00,,,0.01,,2014-12-26 16:53:00,
2014-12-26 12:23:00,69.0,66.0,30.14,NW,319,0.0,3.0,90,0.02,,,0.03,,2014-12-26 17:23:00,
2014-12-26 12:53:00,70.0,68.0,30.12,NNW,331,0.0,4.0,92,0.03,,,0.04,,2014-12-26 17:53:00,